2020 MX
ephemeris date magn radius delta ra dec elong phase
Today19 Oct 202526.61.064 AU1.670 AU16h02m-20°57'37.2°34.5°
2020 MX - 2025-10-19
astro.vanbuitenen.nl


 
-1 year
-1 month
-1 day
Now
+1 day
+1 month
+1 year

The interactive orbit chart above shows the body's path through the solar system and its position at the given date. Green and blue lines are shown perpendicular to the ecliptic plane: Green if the path is above the ecliptic plane, blue if it is below. (Left-click and drag to rotate the view; Right-click and drag to move the view; Use scroll wheel to zoom in our out.)

The orbital elements of 2020 MX are:

            e (Eccentricity)                : 0.2776178
            a (Semimajor axis)              : 0.8328160
            i (Inclination)                 : 4.44724
            Ω (Longitude of ascending node) : 282.49597
            ω (Argument of perihelion)      : 177.01640
            M (Mean anomaly)                : 319.43010
            Epoch                           : 2025 May 05

            L (Longitude of perihelion)     : 279.52134
            B (Latitude of perihelion)      : 0.23125
            P (Orbital period in years)     : 0.76            
        

The light curve chart below shows the estimated development of the minor planet's magnitude.


The all-sky chart below shows the path of the minor planet over the same period as the light curve. The current position is marked yellow.





The following chart shows the path of the minor planet in the next few days. The field of view is optimized for (~10x50) binoculars and finderscopes.




Ephemerides:
Date       Time       RA (2000)    DEC (2000)    delta   radius  elong  phase   PA    magn
2025-10-19 00:00 UT   16 02 18.0   -20 57 20     1.670    1.064   37.2   34.5   102   26.6 
2025-10-19 08:30 UT   16 03 37.4   -21 00 11     1.671    1.064   37.1   34.4   101   26.6 
2025-10-20 00:00 UT   16 06 02.2   -21 05 17     1.673    1.064   37.1   34.4   101   26.6 
2025-10-21 00:00 UT   16 09 46.5   -21 12 55     1.675    1.064   37.0   34.2   101   26.6 
2025-10-22 00:00 UT   16 13 30.8   -21 20 15     1.677    1.064   36.8   34.1   100   26.6 
2025-10-23 00:00 UT   16 17 15.2   -21 27 15     1.680    1.064   36.7   34.0   100   26.6 
2025-10-24 00:00 UT   16 20 59.6   -21 33 57     1.682    1.064   36.6   33.9   100   26.6 
2025-10-25 00:00 UT   16 24 44.1   -21 40 19     1.684    1.064   36.5   33.8    99   26.6 
2025-10-26 00:00 UT   16 28 28.7   -21 46 22     1.686    1.063   36.4   33.7    99   26.6 
2025-10-27 00:00 UT   16 32 13.3   -21 52 06     1.688    1.063   36.2   33.5    99   26.6 
2025-10-28 00:00 UT   16 35 58.0   -21 57 30     1.690    1.063   36.1   33.4    98   26.6 


    Terminology:
            
    delta:  distance between minor planet and earth in AU
    radius: distance between minor planet and sun in AU
    magn:   magnitude (brightness) estimate    
    ra:     right ascension in hours (24h = 360deg)
    dec:    declination in degrees
    elong:  elongation in degrees (angle sun-earth-minor planet)    
    phase:  phase angle in degrees (angle sun-minor planet-earth)        
    AU:     Astronomical Unit (mean distance between earth and sun: 149597870.7 km
    

Orbital elements provided by the MPC (Minor Planet Center).
Calculations by a modified version of AAPlus, a C# implementation of the AA+ project by PJ Naughter from the algorithms presented in the book "Astronomical Algorithms" by Jean Meeus.
NGC2000 dso catalog and star labels from VizieR as provided by the Strasbourg astronomical Data Center.
Tycho2 catalog from the ESO archive.